Find Starlink 30859

NORAD ID: 58371 Int'l Des: 2023-177 Owner: SPXS Country: US Constellation: starlink operational
LEOCIRCULAR

实时位置

正在加载3D地球...

关于 Starlink 30859

正在加载描述...

即将过境

Passes for default location (London). Set your location on the main map for personalized predictions.

高度历史

Loading altitude history...

两行轨道根数

1 58371U 23177W 26127.40987028 -.00001863 00000-0 -58198-4 0 9995
2 58371 43.0060 19.3157 0001161 263.1411 96.9308 15.27571738137217
Epoch: May 7, 2026 • Age: 19 hours

当前状态

高度 484.2 km
速度 7.62 km/s
星下点 -8.67°S, 70.32°E
发射日期 Nov 18, 2023
运行时间 2.4 years
类型 internet

技术详情

分类 Payload
质量 730.00 kg
干质量 700.00 kg
总质量 730.00 kg
长度 0.30 m
直径 4.10 m
跨度 29.00 m
形状 Box + pan
制造商 SPXS
平台类型 Starlink V2M
阶段状态 In Orbit
所有者/国家 SPXS/US

Most Searched